Regional Weather Roundup
Issued by NWS

Home | Current Version | Previous Version | Graphics & Text | Print | Product List | Glossary On
Versions: 1 2 3 4 5 6 7 8 9 10 11 12 13 14 15 16 17 18 19 20 21 22 23 24 25 26 27 28 29 30 31 32 33 34 35 36 37 38 39 40 41 42 43 44 45 46 47 48 49 50
000
ASUS43 KLOT 052303
RWRIL

ILLINOIS REGIONAL WEATHER ROUNDUP
NATIONAL WEATHER SERVICE CHICAGO/ROMEOVILLE IL
600 PM CDT THU MAY 05 2016

NOTE: "FAIR" INDICATES FEW OR NO CLOUDS BELOW 12,000 FEET WITH NO
SIGNIFICANT WEATHER AND/OR OBSTRUCTIONS TO VISIBILITY.

* THESE STATIONS ARE NOT UNDER NWS QUALITY CONTROL. THEY ALSO MAY NOT
  REPORT WEATHER SUCH AS PRECIPITATION OR FOG.

ILZ001-002-007-009-015-016-024-060000-
NORTHWEST ILLINOIS

CITY           SKY/WX    TMP DP  RH WIND       PRES   REMARKS
MOLINE         SUNNY     68  38  33 NW8       29.99F
STERLING*      SUNNY     66  37  34 W7        29.99F
$$

ILZ003-004-008-010-011-017-018-060000-
NORTH CENTRAL ILLINOIS

CITY           SKY/WX    TMP DP  RH WIND       PRES   REMARKS
ROCKFORD       MOSUNNY   66  37  34 N6        29.99F
FREEPORT*      SUNNY     64  38  38 NW7       29.99F
ROCHELLE*      SUNNY     64  39  39 NW9       29.98F
DE KALB*       SUNNY     64  40  42 NW9       29.98F
$$

ILZ005-006-012>014-019>023-060000-
NORTHEAST ILLINOIS

CITY           SKY/WX    TMP DP  RH WIND       PRES   REMARKS
CHICAGO-OHARE  MOSUNNY   59  39  47 E8        29.97S
CHICAGO-MIDWAY MOSUNNY   58  38  47 E6        29.98S
AURORA         MOSUNNY   65  44  46 N6        29.97F
LANSING*       SUNNY     54  41  60 E6        29.98F
WAUKEGAN       SUNNY     52  38  58 E6        29.97F
DUPAGE AIRPORT SUNNY     65  40  39 N10       29.96S
WHEELING       SUNNY     55  37  50 NE7       29.99S
NORTHERLY ISL    N/A     49  39  68 NE5         N/A
NORTHERLY ISL    N/A     49  39  68 NE5         N/A
$$

LMZ740>746-060000-
SOUTHERN LAKE MICHIGAN

STATION/POSITION SKY/WX   TEMP    WIND        PRES    VSBY  WAVE
                          AIR SEA DIR/SP/G                  HT/PER
                          (F)     (DEG/KT/KT) (MB)    (MI)  (FT/S)
SOUTHERN BUOY              43 40   30/  8/  8 1015.2          3/ 6
WILMETTE HARBOR            44 44   80/  6/  8   N/A           3/ 6
HARRISON CRIB              46      40/  9/ 10   N/A
BURNHAM HARBOR             49      10/  7/ 11   N/A
CALUMET HARBOR                     10/  4/  8 1015.2F
BURNS HARBOR               45      30/  5/  8 1016.3F
MICHIGAN CITY              47     330/  8/  9   N/A
ST. JOSEPH                 44 47                N/A           3/ 5
$$

ILZ025>027-034>036-040-047-049-050-058-095>099-060000-
WEST-CENTRAL ILLINOIS

CITY           SKY/WX    TMP DP  RH WIND       PRES   REMARKS
QUINCY         SUNNY     66  34  30 N12       30.02S
MACOMB*        SUNNY     66  34  30 N9        30.03S
PITTSFIELD*    SUNNY     65  41  40 N7        30.03S
$$

ILZ028>032-037-038-041>044-048-051>054-059>061-060000-
CENTRAL ILLINOIS

CITY           SKY/WX    TMP DP  RH WIND       PRES   REMARKS
BLOOMINGTON    PTSUNNY   65  43  44 NW14      29.99S
DECATUR        MOSUNNY   66  43  43 N14       29.97F
PEORIA         SUNNY     65  39  38 NW6       29.99F
SPRINGFIELD    PTSUNNY   67  41  38 N10       29.99F
TAYLORVILLE    NOT AVBL
$$

ILZ033-039-045-046-055>057-062-063-060000-
EAST-CENTRAL ILLINOIS

CITY           SKY/WX    TMP DP  RH WIND       PRES   REMARKS
CHAMPAIGN      MOSUNNY   66  40  38 N13       29.96S
MATTOON        MOSUNNY   62  39  42 N10       29.95S
$$

ILZ079-100>102-060000-
SOUTHWEST ILLINOIS

CITY           SKY/WX    TMP DP  RH WIND       PRES   REMARKS
ALTON          MOSUNNY   64  43  45 N6        30.01S
BELLEVILLE     SUNNY     65  46  50 N8        29.99F
CAHOKIA*       PTSUNNY   67  43  41 N8        30.00F
SPARTA*        PTSUNNY   62  46  55 N7        30.01F
$$

ILZ064>066-069>071-074>076-080>082-084>086-088>090-092>094-060000-
SOUTH-CENTRAL ILLINOIS

CITY           SKY/WX    TMP DP  RH WIND       PRES   REMARKS
CARBONDALE     PTSUNNY   60  43  53 N9        30.00S
MARION         MOSUNNY   61  45  55 NW15      30.00S
MT. VERNON     MOSUNNY   63  45  51 NW3       29.98F
SALEM*         MOSUNNY   65  46  51 NW10      29.98S
$$

ILZ067-068-072-073-078-083-087-091-060000-
SOUTHEAST ILLINOIS

CITY           SKY/WX    TMP DP  RH WIND       PRES   REMARKS
LAWRENCEVILLE  MOSUNNY   66  42  41 N15       29.94S
FLORA*         MOSUNNY   66  46  48 NW10      29.96F
HARRISBURG*    MOSUNNY   62  47  59 NW10      29.98F
ROBINSON*      MOSUNNY   63  45  51 NE10      29.95S
$$

ABBREVIATIONS USED IN REMARKS
   TC - TEMPERATURE IN CELSIUS
  WCI - WIND CHILL INDEX
   HX - HEAT INDEX
  VSB - VISIBILITY
$$





USA.gov is the U.S. government's official web portal to all federal, state and local government web resources and services.